Keahole Point, HI

1:15 AM HST on June 27, 2017 (GMT -1000)
Kona International At Keahole

Weather History for PHKO - March, 2013

Change the Weather History Date:

Friday, March 1, 2013

  Actual Average Record
Temperature  
Mean Temperature 75 °F -  
Max Temperature 81 °F 79 °F 87 °F (2004)
Min Temperature 69 °F 67 °F 64 °F (1987)
Cooling Degree Days 10    
Growing Degree Days 25 (Base 50)    
Moisture  
Dew Point 57 °F    
Average Humidity 55    
Maximum Humidity 66    
Minimum Humidity 45    
Precipitation  
Precipitation 0.00 in - - ()
Sea Level Pressure  
Sea Level Pressure 30.06 in    
Wind  
Wind Speed 9 mph (ESE)    
Max Wind Speed 15 mph    
Max Gust Speed 17 mph    
Visibility 10 miles    
Events Rain    
Averages and records for this station are not official NWS values.
T = Trace of Precipitation, MM = Missing Value Source: NWS Daily Summary

Daily Weather History Graph

Daily Weather History Graph

Search for Another Location

Airport or City:

Trip Planner

Search our weather history database for the weather conditions in past years. The results will help you decide how hot, cold, wet, or windy it might be!

Date:

Astronomy

Mar. 01, 2013 Rise Set
Actual Time 6:43 AM HST 6:29 PM HST
Civil Twilight 6:21 AM HST 6:51 PM HST
Nautical Twilight 5:55 AM HST 7:17 PM HST
Astronomical Twilight 5:30 AM HST 7:42 PM HST
Moon 10:30 PM HST (3/1) 9:18 AM HST (3/1)
Length of Visible Light 12h 30m
Length of Day
11h 46m
Waning Gibbous, 81% of the Moon is Illuminated
Mar 1
Waning Gibbous
Mar 4
Last Quarter
Mar 11
New
Mar 19
First Quarter
Mar 26
Full

Hourly Weather History & Observations

Time (HST) Temp. Heat Index Dew Point Humidity Pressure Visibility Wind Dir Wind Speed Gust Speed Precip Events Conditions
12:53 AM 73.0 °F - 54.0 °F 51% 30.11 in 10.0 mi North 15.0 mph - N/A   Clear
1:53 AM 71.1 °F - 51.1 °F 49% 30.09 in 10.0 mi NE 11.5 mph - N/A   Clear
2:53 AM 69.1 °F - 54.0 °F 58% 30.06 in 10.0 mi Variable 4.6 mph - N/A   Clear
3:53 AM 69.1 °F - 54.0 °F 58% 30.05 in 10.0 mi East 6.9 mph - N/A   Clear
4:53 AM 69.1 °F - 55.9 °F 63% 30.05 in 10.0 mi East 5.8 mph - N/A   Clear
5:53 AM 69.1 °F - 54.0 °F 58% 30.05 in 10.0 mi NNE 13.8 mph 17.3 mph N/A   Mostly Cloudy
6:53 AM 69.1 °F - 57.0 °F 65% 30.05 in 10.0 mi East 5.8 mph - N/A   Clear
7:53 AM 71.1 °F - 57.9 °F 63% 30.07 in 10.0 mi East 3.5 mph - N/A   Mostly Cloudy
8:31 AM 73.4 °F - 59.0 °F 61% 30.08 in 10.0 mi Calm Calm - N/A   Mostly Cloudy
8:44 AM 75.2 °F - 60.8 °F 61% 30.09 in 10.0 mi Calm Calm - 0.00 in Rain Light Rain
8:53 AM 75.9 °F - 60.1 °F 58% 30.09 in 10.0 mi Calm Calm - 0.00 in   Overcast
9:53 AM 75.0 °F - 61.0 °F 62% 30.10 in 10.0 mi West 4.6 mph - N/A   Mostly Cloudy
10:53 AM 77.0 °F - 59.0 °F 54% 30.10 in 10.0 mi WSW 9.2 mph - N/A   Mostly Cloudy
11:53 AM 80.1 °F 81.1 °F 61.0 °F 52% 30.09 in 10.0 mi WSW 12.7 mph - N/A   Mostly Cloudy
12:53 PM 79.0 °F - 57.9 °F 48% 30.07 in 10.0 mi SW 13.8 mph - N/A   Scattered Clouds
1:53 PM 81.0 °F 81.1 °F 57.9 °F 45% 30.04 in 10.0 mi SSW 13.8 mph - N/A   Partly Cloudy
2:53 PM 81.0 °F 81.6 °F 60.1 °F 49% 30.02 in 10.0 mi South 15.0 mph - N/A   Scattered Clouds
3:53 PM 79.0 °F - 57.9 °F 48% 30.01 in 10.0 mi South 12.7 mph - N/A   Mostly Cloudy
4:53 PM 78.1 °F - 57.9 °F 50% 30.01 in 10.0 mi South 8.1 mph - N/A   Mostly Cloudy
5:53 PM 77.0 °F - 57.0 °F 50% 30.03 in 10.0 mi South 4.6 mph - N/A   Overcast
6:53 PM 75.9 °F - 57.9 °F 54% 30.03 in 10.0 mi South 8.1 mph - N/A   Scattered Clouds
7:53 PM 73.9 °F - 57.9 °F 57% 30.04 in 10.0 mi ESE 5.8 mph - N/A   Overcast
8:53 PM 73.9 °F - 59.0 °F 59% 30.06 in 10.0 mi East 3.5 mph - N/A   Overcast
9:53 PM 73.9 °F - 52.0 °F 46% 30.08 in 10.0 mi NE 3.5 mph - N/A   Overcast
10:53 PM 71.1 °F - 59.0 °F 66% 30.08 in 10.0 mi NNE 5.8 mph - N/A   Mostly Cloudy
11:53 PM 72.0 °F - 55.9 °F 57% 30.07 in 10.0 mi ENE 6.9 mph - N/A   Mostly Cloudy